Torna al catalogo

STARLINK-5568

AttivoComunicazioniVLEO
NORAD 55372·PAYLOAD·🇺🇸 United States

Lanciato Jan 26, 2023 da Cape Canaveral Space Force Station

Loading…

Prossimi Passaggi (prossime 24 ore)

TLE

AggiornatoSource: CelesTrak SupGP

Epoca: Sep 14, 2026, 22:20 UTC

1 55372C 23013AT  26257.93104167 -.00036418  00000+0 -13188-2 0  2577
2 55372  43.0018 329.6716 0002078 280.6988  12.0659 15.27600886    19

Traccia STARLINK-5568 in tempo reale con AllMySat

Download on the App Store